KQA656 HKJK-HKKI

Flight info

Callsign KQA656
Flight time 0h 32m
Altitude 24000
Route APKUB1A APKUB DCT NEVON NEVON1B
Aircraft B738/M-SDE1E2E3FGHIJ2J3J4J5M1RWXYZ/LB1D1

Departure

Time 2026-05-04 10:46
Airport Jomo Kenyatta International Airport (HKJK)

Arrival

Time 2026-05-04 11:19
Airport Kisumu International Airport (HKKI)
Time Latitude Longitude Altitude Speed Heading
2026-05-04 10:21 -1.32927 36.92646 5323 ft 0 kts 229°
2026-05-04 10:35 -1.32927 36.92647 5350 ft 1 kts 229°
2026-05-04 10:35 -1.32912 36.92664 5314 ft 4 kts 229°
2026-05-04 10:36 -1.32894 36.92685 5316 ft 3 kts 229°
2026-05-04 10:36 -1.32881 36.92702 5315 ft 4 kts 250°
2026-05-04 10:36 -1.32880 36.92725 5315 ft 4 kts 302°
2026-05-04 10:36 -1.32898 36.92742 5315 ft 4 kts 327°
2026-05-04 10:37 -1.32922 36.92754 5318 ft 4 kts 336°
2026-05-04 10:37 -1.32930 36.92757 5313 ft 0 kts 335°
2026-05-04 10:40 -1.32919 36.92753 5315 ft 4 kts 335°
2026-05-04 10:40 -1.32880 36.92730 5319 ft 9 kts 322°
2026-05-04 10:40 -1.32823 36.92673 5321 ft 13 kts 308°
2026-05-04 10:40 -1.32780 36.92594 5315 ft 13 kts 289°
2026-05-04 10:41 -1.32765 36.92507 5315 ft 13 kts 274°
2026-05-04 10:41 -1.32776 36.92421 5321 ft 12 kts 253°
2026-05-04 10:41 -1.32811 36.92345 5321 ft 12 kts 239°
2026-05-04 10:41 -1.32861 36.92282 5317 ft 12 kts 245°
2026-05-04 10:42 -1.32850 36.92235 5315 ft 6 kts 322°
2026-05-04 10:42 -1.32811 36.92215 5320 ft 6 kts 332°
2026-05-04 10:42 -1.32779 36.92184 5323 ft 7 kts 286°
2026-05-04 10:42 -1.32802 36.92133 5324 ft 11 kts 231°
2026-05-04 10:43 -1.32848 36.92050 5332 ft 15 kts 274°
2026-05-04 10:44 -1.32711 36.91702 5334 ft 6 kts 64°
2026-05-04 10:45 -1.32688 36.91735 5332 ft 0 kts 54°
2026-05-04 10:45 -1.32685 36.91739 5337 ft 2 kts 53°
2026-05-04 10:45 -1.32574 36.91891 5322 ft 61 kts 54°
2026-05-04 10:45 -1.32187 36.92421 5321 ft 126 kts 53°
2026-05-04 10:46 -1.31560 36.93279 5302 ft 179 kts 54°
2026-05-04 10:46 -1.30764 36.94358 5697 ft 200 kts 54°
2026-05-04 10:46 -1.29894 36.95479 6473 ft 206 kts 55°
2026-05-04 10:46 -1.29033 36.96603 7240 ft 203 kts 56°
2026-05-04 10:47 -1.28166 36.97789 7618 ft 222 kts 57°
2026-05-04 10:47 -1.27235 36.99113 7852 ft 243 kts 56°
2026-05-04 10:47 -1.26211 37.00546 8064 ft 263 kts 59°
2026-05-04 10:47 -1.25589 37.02284 8376 ft 276 kts 85°
2026-05-04 10:49 -1.36121 37.06022 12281 ft 348 kts 225°
2026-05-04 10:49 -1.37444 37.04025 13009 ft 355 kts 246°
2026-05-04 10:50 -1.37992 37.01606 13669 ft 362 kts 267°
2026-05-04 10:51 -1.28465 36.86271 17939 ft 391 kts 303°
2026-05-04 10:52 -1.26946 36.84005 18520 ft 395 kts 302°
2026-05-04 10:52 -1.25434 36.81685 18986 ft 400 kts 302°
2026-05-04 10:52 -1.23931 36.79339 19535 ft 401 kts 302°
2026-05-04 10:54 -1.13240 36.62428 22839 ft 422 kts 302°
2026-05-04 10:54 -1.12200 36.60785 23167 ft 423 kts 303°
2026-05-04 10:56 -1.00056 36.43621 25838 ft 439 kts 303°
2026-05-04 10:56 -0.98430 36.41019 26106 ft 443 kts 302°
2026-05-04 10:56 -0.96807 36.38406 26202 ft 441 kts 302°
2026-05-04 10:57 -0.95201 36.35816 26212 ft 439 kts 302°
2026-05-04 10:57 -0.93587 36.33216 26215 ft 440 kts 302°
2026-05-04 10:57 -0.91980 36.30631 26210 ft 440 kts 302°
2026-05-04 10:57 -0.89831 36.27179 26207 ft 440 kts 303°
2026-05-04 10:58 -0.88742 36.25432 26200 ft 437 kts 302°
2026-05-04 10:58 -0.87129 36.22842 26224 ft 440 kts 302°
2026-05-04 10:58 -0.85514 36.20252 26195 ft 440 kts 302°
2026-05-04 10:58 -0.83900 36.17663 26193 ft 438 kts 303°
2026-05-04 10:59 -0.82286 36.15075 26197 ft 439 kts 303°
2026-05-04 10:59 -0.80675 36.12492 26199 ft 436 kts 303°
2026-05-04 10:59 -0.79086 36.09943 26188 ft 429 kts 303°
2026-05-04 10:59 -0.77517 36.07426 26180 ft 425 kts 303°
2026-05-04 11:00 -0.75956 36.04922 26192 ft 424 kts 303°
2026-05-04 11:01 -0.64999 35.87351 24483 ft 426 kts 302°
2026-05-04 11:02 -0.63437 35.84846 24025 ft 424 kts 302°
2026-05-04 11:02 -0.61878 35.82347 23516 ft 422 kts 302°
2026-05-04 11:05 -0.41220 35.49223 17070 ft 384 kts 302°
2026-05-04 11:06 -0.39816 35.46970 16634 ft 381 kts 302°
2026-05-04 11:06 -0.38416 35.44726 16198 ft 378 kts 302°
2026-05-04 11:06 -0.37041 35.42523 15766 ft 369 kts 302°
2026-05-04 11:06 -0.35701 35.40373 15324 ft 361 kts 302°
2026-05-04 11:08 -0.26690 35.25926 12388 ft 346 kts 301°
2026-05-04 11:10 -0.17994 35.11980 10195 ft 316 kts 302°
2026-05-04 11:12 -0.11488 35.00079 8448 ft 280 kts 291°
2026-05-04 11:12 -0.10758 34.98268 8160 ft 279 kts 292°
2026-05-04 11:12 -0.10031 34.96500 7873 ft 272 kts 292°
2026-05-04 11:12 -0.09323 34.94794 7627 ft 260 kts 292°
2026-05-04 11:13 -0.08636 34.93153 7294 ft 251 kts 292°
2026-05-04 11:13 -0.07976 34.91587 7019 ft 237 kts 292°
2026-05-04 11:13 -0.07399 34.90099 6809 ft 225 kts 289°
2026-05-04 11:13 -0.06884 34.88653 6515 ft 215 kts 288°
2026-05-04 11:14 -0.06720 34.88184 6465 ft 210 kts 288°
2026-05-04 11:14 -0.05796 34.85500 6021 ft 198 kts 287°
2026-05-04 11:16 -0.06387 34.76950 4798 ft 152 kts 238°
2026-05-04 11:16 -0.06889 34.76009 4536 ft 154 kts 240°
2026-05-04 11:16 -0.07400 34.75070 4223 ft 152 kts 239°
2026-05-04 11:17 -0.07893 34.74170 3922 ft 141 kts 241°
2026-05-04 11:17 -0.08339 34.73346 3796 ft 128 kts 242°
2026-05-04 11:19 -0.08952 34.72213 3741 ft 12 kts 68°
2026-05-04 11:19 -0.08902 34.72309 3745 ft 19 kts 61°
2026-05-04 11:19 -0.08828 34.72445 3751 ft 24 kts 62°
2026-05-04 11:19 -0.08751 34.72589 3759 ft 23 kts 62°
2026-05-04 11:20 -0.08676 34.72725 3767 ft 16 kts 61°
2026-05-04 11:20 -0.08624 34.72818 3775 ft 15 kts 53°
2026-05-04 11:20 -0.08569 34.72825 3775 ft 8 kts 333°
2026-05-04 11:20 -0.08515 34.72797 3777 ft 9 kts 332°
2026-05-04 11:22 -0.08323 34.72870 3776 ft 4 kts 327°
2026-05-04 11:22 -0.08299 34.72855 3778 ft 2 kts 327°
2026-05-04 11:23 -0.08284 34.72854 3776 ft 2 kts 26°
2026-05-04 11:23 -0.08275 34.72868 3778 ft 2 kts 71°
2026-05-04 11:24 -0.08262 34.72895 3780 ft 0 kts 61°